WetterOnline ( https://www.wetteronline.ch )

Wetter aktuell Wien

Aktuelles Wetter: Wien / Hohe Warte (200m)

6-stündlich | Neueste Meldungen
Ortszeit Temperatur Wetter
Di, 22.10. 8:00 10.7° C fast wolkenlos
Di, 22.10. 2:00 11.3° C wolkenlos
Mo, 21.10. 20:00 14.0° C wolkenlos
Mo, 21.10. 14:00 19.0° C leicht bewölkt
Mo, 21.10. 8:00 8.5° C Nebel (abnehmend)
Mo, 21.10. 2:00 8.9° C wolkenlos
So, 20.10. 20:00 12.1° C wolkenlos
So, 20.10. 14:00 13.4° C wolkig
Ortszeit Temperatur Wetter
Di, 22.10. 13:00 18.4° C fast wolkenlos
Di, 22.10. 12:00 16.9° C fast wolkenlos
Di, 22.10. 11:00 14.4° C fast wolkenlos
Di, 22.10. 10:00 13.1° C leicht bewölkt
Di, 22.10. 9:00 11.9° C bewölkt
Di, 22.10. 8:00 10.7° C fast wolkenlos
Ortszeit Relative Feuchte Sichtweite
Di, 22.10. 8:00 100% 5.0 km
Di, 22.10. 2:00 98% 5.0 km
Mo, 21.10. 20:00 92% 25 km
Mo, 21.10. 14:00 69% 14 km
Mo, 21.10. 8:00 100% 0.3 km
Mo, 21.10. 2:00 98% 8 km
So, 20.10. 20:00 97% 15 km
So, 20.10. 14:00 85% 9 km
Ortszeit Relative Feuchte Sichtweite
Di, 22.10. 13:00 74% 15 km
Di, 22.10. 12:00 79% 10 km
Di, 22.10. 11:00 88% 10 km
Di, 22.10. 10:00 96% 3.0 km
Di, 22.10. 9:00 99% 3.0 km
Di, 22.10. 8:00 100% 5.0 km
Ortszeit Niederschlagsmenge Niederschlagsart
Di, 22.10. 8:00 0.0 l/m2 in 24 Std. -
Di, 22.10. 2:00 0.0 l/m2 in 24 Std. -
Mo, 21.10. 20:00 0.0 l/m2 in 24 Std. -
Mo, 21.10. 14:00 0.0 l/m2 in 24 Std. Nebel
Mo, 21.10. 8:00 0.0 l/m2 in 24 Std. Nebel
Mo, 21.10. 2:00 0.0 l/m2 in 24 Std. -
So, 20.10. 20:00 0.0 l/m2 in 24 Std. -
So, 20.10. 14:00 0.0 l/m2 in 24 Std. -
Ortszeit Niederschlagsmenge Niederschlagsart
Di, 22.10. 13:00 keine Meldung -
Di, 22.10. 12:00 keine Meldung -
Di, 22.10. 11:00 keine Meldung -
Di, 22.10. 10:00 keine Meldung -
Di, 22.10. 9:00 keine Meldung -
Di, 22.10. 8:00 keine Meldung -
Ortszeit Stärke Spitze Richtung
km/h Bft. km/h Grad Sektor
Di, 22.10. 8:00 0 0 - - -
Di, 22.10. 2:00 4 1 - 260° W
Mo, 21.10. 20:00 7 2 - 50° NO
Mo, 21.10. 14:00 7 2 - 150° SO
Mo, 21.10. 8:00 4 1 - 250° W
Mo, 21.10. 2:00 4 1 - 230° SW
So, 20.10. 20:00 7 2 - 280° W
So, 20.10. 14:00 4 1 - 290° W
Ortszeit Stärke Spitze Richtung
km/h Bft. km/h Grad Sektor
Di, 22.10. 13:00 7 2 - 60° NO
Di, 22.10. 12:00 7 2 - 80° O
Di, 22.10. 11:00 7 2 - 80° O
Di, 22.10. 10:00 7 2 - 90° O
Di, 22.10. 9:00 4 1 - 150° SO
Di, 22.10. 8:00 0 0 - - -
Ortszeit Untergrenze Bedeckung Gattung
total tief tief mittel hoch
Di, 22.10. 8:00 300 m 2/8 1/8 St - Ci
Di, 22.10. 2:00 - 0/8 0/8 - - -
Mo, 21.10. 20:00 - 0/8 0/8 - - -
Mo, 21.10. 14:00 9000 m 5/8 0/8 - - Ci
Mo, 21.10. 8:00 9000 m 2/8 0/8 - - Ci
Mo, 21.10. 2:00 - 0/8 0/8 - - -
So, 20.10. 20:00 - 0/8 0/8 - - -
So, 20.10. 14:00 210 m 7/8 3/8 St Ac Ci
Ortszeit Bedeckungsgrad in Achtel und Wolkenuntergrenze
Di, 22.10. 13:00 1(900m)
Di, 22.10. 12:00 1(9000m)
Di, 22.10. 11:00 1(9000m)
Di, 22.10. 10:00 3(9000m)
Di, 22.10. 9:00 7(600m)
Di, 22.10. 8:00 1(300m)
Ortszeit Luftdruck NN (hPa) Tendenz (hPa in 3 Std.)
Di, 22.10. 8:00 1023 + 1,1
Di, 22.10. 2:00 1021 + 0,6
Mo, 21.10. 20:00 1020 + 0,6
Mo, 21.10. 14:00 1019 + 0,5
Mo, 21.10. 8:00 1018 + 1,4
Mo, 21.10. 2:00 1015 + 1,2
So, 20.10. 20:00 1013 + 0,2
So, 20.10. 14:00 1014 - 0,7
Ortszeit Luftdruck NN (hPa) Tendenz (hPa in 3 Std.)
Di, 22.10. 13:00 1023 - 0,7
Di, 22.10. 12:00 1023 - 0,2
Di, 22.10. 11:00 1024 + 0,9
Di, 22.10. 10:00 1024 + 1,6
Di, 22.10. 9:00 1024 + 1,5
Di, 22.10. 8:00 1023 + 1,1
Ortszeit Schneehöhe (cm)
Di, 22.10. 8:00 -
Di, 22.10. 2:00 -
Mo, 21.10. 20:00 -
Mo, 21.10. 14:00 -
Mo, 21.10. 8:00 -
Mo, 21.10. 2:00 -
So, 20.10. 20:00 -
So, 20.10. 14:00 -
Ortszeit Schneehöhe (cm)
Di, 22.10. 13:00 -
Di, 22.10. 12:00 -
Di, 22.10. 11:00 -
Di, 22.10. 10:00 -
Di, 22.10. 9:00 -
Di, 22.10. 8:00 -
Link zu dieser Seite / Seite empfehlen

Das Wetter in ...